Rock Hill, SC

10:42 PM EST on December 13, 2017 (GMT -0500)
Rock Hill-York County-Bryant

Weather History for KUZA - August, 2013

Change the Weather History Date:

Friday, August 23, 2013

  Actual Average Record
Temperature  
Mean Temperature 78 °F -  
Max Temperature 88 °F 87 °F 103 °F (1983)
Min Temperature 68 °F 68 °F 55 °F (1952)
Cooling Degree Days 13    
Growing Degree Days 28 (Base 50)    
Moisture  
Dew Point 70 °F    
Average Humidity 89    
Maximum Humidity 100    
Minimum Humidity 55    
Precipitation  
Precipitation 0.00 in - - ()
Sea Level Pressure  
Sea Level Pressure 30.03 in    
Wind  
Wind Speed 2 mph (NW)    
Max Wind Speed 9 mph    
Max Gust Speed -    
Visibility 7 miles    
Events Fog , Rain    
Averages and records for this station are not official NWS values.
T = Trace of Precipitation, MM = Missing Value Source: NWS Daily Summary

Daily Weather History Graph

Daily Weather History Graph

Search for Another Location

Airport or City:

Trip Planner

Search our weather history database for the weather conditions in past years. The results will help you decide how hot, cold, wet, or windy it might be!

Date:

Astronomy

Aug. 23, 2013 Rise Set
Actual Time 6:50 AM EDT 8:02 PM EDT
Civil Twilight 6:24 AM EDT 8:28 PM EDT
Nautical Twilight 5:52 AM EDT 8:59 PM EDT
Astronomical Twilight 5:20 AM EDT 9:32 PM EDT
Moon 9:30 PM EDT (8/23) 9:35 AM EDT (8/23)
Length of Visible Light 14h 04m
Length of Day
13h 12m
Waning Gibbous, 91% of the Moon is Illuminated
Aug 23
Waning Gibbous
Aug 28
Last Quarter
Sep 5
New
Sep 12
First Quarter
Sep 19
Full

Hourly Weather History & Observations

Time (EDT) Temp. Heat Index Dew Point Humidity Pressure Visibility Wind Dir Wind Speed Gust Speed Precip Events Conditions
12:54 AM 70.0 °F - 70.0 °F 100% 30.04 in 10.0 mi Calm Calm - N/A   Clear
1:38 AM 70.0 °F - 70.0 °F 100% 30.07 in 10.0 mi Calm Calm - N/A   Mostly Cloudy
1:54 AM 69.1 °F - 69.1 °F 100% 30.03 in 9.0 mi Calm Calm - N/A   Mostly Cloudy
2:22 AM 68.0 °F - 68.0 °F 100% 30.05 in 7.0 mi SW 4.6 mph - N/A   Scattered Clouds
2:54 AM 68.0 °F - 68.0 °F 100% 30.01 in 7.0 mi SSW 5.8 mph - N/A   Clear
3:54 AM 68.0 °F - 68.0 °F 100% 29.99 in 8.0 mi Calm Calm - N/A   Clear
4:54 AM 68.0 °F - 68.0 °F 100% 29.99 in 6.0 mi SW 9.2 mph - N/A   Scattered Clouds
5:40 AM 69.1 °F - 68.0 °F 96% 30.04 in 10.0 mi Calm Calm - N/A   Overcast
5:52 AM 69.8 °F - 68.0 °F 94% 30.04 in 9.0 mi West 3.5 mph - N/A   Overcast
5:54 AM 69.1 °F - 68.0 °F 96% 30.00 in 9.0 mi WSW 3.5 mph - N/A   Overcast
6:18 AM 69.1 °F - 69.1 °F 100% 30.04 in 1.8 mi WNW 3.5 mph - N/A   Overcast
6:35 AM 69.1 °F - 69.1 °F 100% 30.05 in 0.5 mi NW 3.5 mph - N/A Fog Fog
6:54 AM 69.1 °F - 69.1 °F 100% 30.02 in 0.2 mi NNW 4.6 mph - N/A Fog Fog
7:49 AM 69.8 °F - 69.8 °F 100% 30.06 in 0.8 mi Calm Calm - N/A   Mist
7:54 AM 70.0 °F - 70.0 °F 100% 30.03 in 0.5 mi Calm Calm - N/A Fog Fog
8:42 AM 70.0 °F - 70.0 °F 100% 30.08 in 1.0 mi Calm Calm - N/A   Mist
8:54 AM 70.0 °F - 70.0 °F 100% 30.05 in 2.0 mi Calm Calm - N/A   Overcast
9:11 AM 70.0 °F - 70.0 °F 100% 30.08 in 5.0 mi Calm Calm - N/A   Overcast
9:54 AM 73.0 °F - 72.0 °F 96% 30.05 in 10.0 mi Calm Calm - N/A   Scattered Clouds
10:54 AM 81.0 °F 85.8 °F 73.0 °F 77% 30.05 in 10.0 mi Calm Calm - N/A   Clear
11:54 AM 84.9 °F 90.7 °F 72.0 °F 65% 30.04 in 10.0 mi Calm Calm - N/A   Clear
12:54 PM 86.0 °F 91.5 °F 71.1 °F 61% 30.02 in 10.0 mi NE 3.5 mph - N/A   Scattered Clouds
1:54 PM 86.0 °F 90.1 °F 69.1 °F 57% 30.00 in 10.0 mi West 4.6 mph - N/A   Clear
2:54 PM 87.1 °F 92.0 °F 70.0 °F 57% 29.99 in 10.0 mi Calm Calm - N/A   Clear
3:54 PM 88.0 °F 92.9 °F 70.0 °F 55% 29.96 in 10.0 mi Calm Calm - N/A   Clear
4:54 PM 84.9 °F 89.4 °F 70.0 °F 61% 29.96 in 10.0 mi North 8.1 mph - N/A   Clear
5:54 PM 78.1 °F - 66.9 °F 68% 29.98 in 10.0 mi NNE 5.8 mph - 0.00 in Rain Light Rain
6:54 PM 75.0 °F - 69.1 °F 82% 29.98 in 10.0 mi North 3.5 mph - 0.00 in Rain Light Rain
7:54 PM 73.9 °F - 70.0 °F 87% 30.01 in 10.0 mi Calm Calm - 0.00 in   Clear
8:54 PM 73.0 °F - 71.1 °F 93% 30.02 in 9.0 mi Calm Calm - N/A   Clear
9:54 PM 71.1 °F - 70.0 °F 96% 30.04 in 8.0 mi Calm Calm - N/A   Clear
10:54 PM 72.0 °F - 70.0 °F 93% 30.03 in 8.0 mi Calm Calm - N/A   Clear
11:54 PM 72.0 °F - 70.0 °F 93% 30.05 in 8.0 mi NE 3.5 mph - N/A   Mostly Cloudy